owner,sensor,date,latitude,longitude,air_pressure(mBar),qcFlag 
TABS,ioos:station:wmo:42045:1,2013-05-01T00:00:00Z,26.2168,-96.4998,1006.6,11111222 
TABS,ioos:station:wmo:42045:1,2013-05-01T00:30:00Z,26.2168,-96.4998,1006.7,11111222 
TABS,ioos:station:wmo:42045:1,2013-05-01T01:00:00Z,26.2168,-96.4998,1006.9,11111222 
TABS,ioos:station:wmo:42045:1,2013-05-01T01:30:00Z,26.2168,-96.4998,1007.13,11111222 
TABS,ioos:station:wmo:42045:1,2013-05-01T02:00:00Z,26.2168,-96.4998,1007.38,11111222 
TABS,ioos:station:wmo:42045:1,2013-05-01T02:30:00Z,26.2168,-96.4998,1007.41,11111222 
TABS,ioos:station:wmo:42045:1,2013-05-01T03:00:00Z,26.2168,-96.4998,1008.05,11111222 
TABS,ioos:station:wmo:42045:1,2013-05-01T03:30:00Z,26.2168,-96.4998,1008.61,11111222 
TABS,ioos:station:wmo:42045:1,2013-05-01T04:00:00Z,26.2168,-96.4998,1008.55,11111222 
TABS,ioos:station:wmo:42045:1,2013-05-01T04:30:00Z,26.2168,-96.4998,1008.46,11111222 
TABS,ioos:station:wmo:42045:1,2013-05-01T05:00:00Z,26.2168,-96.4998,1008.6,11111222 
TABS,ioos:station:wmo:42045:1,2013-05-01T05:30:00Z,26.2168,-96.4998,1008.7,11111222 
TABS,ioos:station:wmo:42045:1,2013-05-01T06:00:00Z,26.2168,-96.4998,1008.56,11111222 
TABS,ioos:station:wmo:42045:1,2013-05-01T06:30:00Z,26.2168,-96.4998,1008.41,11111222 
TABS,ioos:station:wmo:42045:1,2013-05-01T07:00:00Z,26.2168,-96.4998,1008.05,11111222 
TABS,ioos:station:wmo:42045:1,2013-05-01T07:30:00Z,26.2168,-96.4998,1007.51,11111222 
TABS,ioos:station:wmo:42045:1,2013-05-01T08:00:00Z,26.2168,-96.4998,1007.69,11111222 
TABS,ioos:station:wmo:42045:1,2013-05-01T08:30:00Z,26.2168,-96.4998,1007.26,11111222 
TABS,ioos:station:wmo:42045:1,2013-05-01T09:00:00Z,26.2168,-96.4998,1007.48,11111222 
TABS,ioos:station:wmo:42045:1,2013-05-01T09:30:00Z,26.2168,-96.4998,1007.56,11111222 
TABS,ioos:station:wmo:42045:1,2013-05-01T10:00:00Z,26.2168,-96.4998,1007.96,11111222 
TABS,ioos:station:wmo:42045:1,2013-05-01T10:30:00Z,26.2168,-96.4998,1008.24,11111222 
TABS,ioos:station:wmo:42045:1,2013-05-01T11:00:00Z,26.2168,-96.4998,1008.4,11111222 
TABS,ioos:station:wmo:42045:1,2013-05-01T11:30:00Z,26.2168,-96.4998,1008.71,11111222 
TABS,ioos:station:wmo:42045:1,2013-05-01T12:00:00Z,26.2168,-96.4998,1009.12,11111222 
TABS,ioos:station:wmo:42045:1,2013-05-01T12:30:00Z,26.2168,-96.4998,1009.12,11111222 
TABS,ioos:station:wmo:42045:1,2013-05-01T13:00:00Z,26.2168,-96.4998,1009.19,11111222 
TABS,ioos:station:wmo:42045:1,2013-05-01T13:30:00Z,26.2168,-96.4998,1009.73,11111222 
TABS,ioos:station:wmo:42045:1,2013-05-01T14:00:00Z,26.2168,-96.4998,1010.07,11111222 
TABS,ioos:station:wmo:42045:1,2013-05-01T14:30:00Z,26.2168,-96.4998,1010.44,11111222 
TABS,ioos:station:wmo:42045:1,2013-05-01T15:00:00Z,26.2168,-96.4998,1010.48,11111222 
TABS,ioos:station:wmo:42045:1,2013-05-01T15:30:00Z,26.2168,-96.4998,1010.39,11111222 
TABS,ioos:station:wmo:42045:1,2013-05-01T16:00:00Z,26.2168,-96.4998,1010.42,11111222 
TABS,ioos:station:wmo:42045:1,2013-05-01T16:30:00Z,26.2168,-96.4998,1010.23,11111222 
TABS,ioos:station:wmo:42045:1,2013-05-01T17:00:00Z,26.2168,-96.4998,1010.33,11111222 
TABS,ioos:station:wmo:42045:1,2013-05-01T17:30:00Z,26.2168,-96.4998,1009.88,11111222 
TABS,ioos:station:wmo:42045:1,2013-05-01T18:00:00Z,26.2168,-96.4998,1009.81,11111222 
TABS,ioos:station:wmo:42045:1,2013-05-01T18:30:00Z,26.2168,-96.4998,1009.88,11111222 
TABS,ioos:station:wmo:42045:1,2013-05-01T19:00:00Z,26.2168,-96.4998,1009.77,11111222 
TABS,ioos:station:wmo:42045:1,2013-05-01T19:30:00Z,26.2168,-96.4998,1009.73,11111222 
TABS,ioos:station:wmo:42045:1,2013-05-01T20:00:00Z,26.2168,-96.4998,1009.53,11111222 
TABS,ioos:station:wmo:42045:1,2013-05-01T20:30:00Z,26.2168,-96.4998,1009.4,11111222 
TABS,ioos:station:wmo:42045:1,2013-05-01T21:00:00Z,26.2168,-96.4998,1009.31,11111222 
TABS,ioos:station:wmo:42045:1,2013-05-01T21:30:00Z,26.2168,-96.4998,1009.08,11111222 
TABS,ioos:station:wmo:42045:1,2013-05-01T22:00:00Z,26.2168,-96.4998,1008.97,11111222 
TABS,ioos:station:wmo:42045:1,2013-05-01T22:30:00Z,26.2168,-96.4998,1008.98,11111222 
TABS,ioos:station:wmo:42045:1,2013-05-01T23:00:00Z,26.2168,-96.4998,1009.06,11111222 
TABS,ioos:station:wmo:42045:1,2013-05-01T23:30:00Z,26.2168,-96.4998,1009.04,11111222 
TABS,ioos:station:wmo:42045:1,2013-05-02T00:00:00Z,26.2168,-96.4998,1009.27,11111222 
TABS,ioos:station:wmo:42045:1,2013-05-02T00:30:00Z,26.2168,-96.4998,1009.48,11111222 
TABS,ioos:station:wmo:42045:1,2013-05-02T01:00:00Z,26.2168,-96.4998,1009.78,11111222 
TABS,ioos:station:wmo:42045:1,2013-05-02T01:30:00Z,26.2168,-96.4998,1010.16,11111222 
TABS,ioos:station:wmo:42045:1,2013-05-02T02:00:00Z,26.2168,-96.4998,1010.21,11111222 
TABS,ioos:station:wmo:42045:1,2013-05-02T02:30:00Z,26.2168,-96.4998,1010.4,11111222 
TABS,ioos:station:wmo:42045:1,2013-05-02T03:00:00Z,26.2168,-96.4998,1010.71,11111222 
TABS,ioos:station:wmo:42045:1,2013-05-02T03:30:00Z,26.2168,-96.4998,1010.83,11111222 
TABS,ioos:station:wmo:42045:1,2013-05-02T04:00:00Z,26.2168,-96.4998,1011.05,11111222 
TABS,ioos:station:wmo:42045:1,2013-05-02T04:30:00Z,26.2168,-96.4998,1011.18,11111222 
TABS,ioos:station:wmo:42045:1,2013-05-02T05:00:00Z,26.2168,-96.4998,1011.13,11111222 
TABS,ioos:station:wmo:42045:1,2013-05-02T05:30:00Z,26.2168,-96.4998,1011.42,11111222 
TABS,ioos:station:wmo:42045:1,2013-05-02T06:00:00Z,26.2168,-96.4998,1011.85,11111222 
TABS,ioos:station:wmo:42045:1,2013-05-02T06:30:00Z,26.2168,-96.4998,1011.61,11111222 
TABS,ioos:station:wmo:42045:1,2013-05-02T07:00:00Z,26.2168,-96.4998,1011.72,11111222 
TABS,ioos:station:wmo:42045:1,2013-05-02T07:30:00Z,26.2168,-96.4998,1011.73,11111222 
TABS,ioos:station:wmo:42045:1,2013-05-02T08:00:00Z,26.2168,-96.4998,1011.56,11111222 
TABS,ioos:station:wmo:42045:1,2013-05-02T08:30:00Z,26.2168,-96.4998,1011.66,11111222 
TABS,ioos:station:wmo:42045:1,2013-05-02T09:00:00Z,26.2168,-96.4998,1011.89,11111222 
TABS,ioos:station:wmo:42045:1,2013-05-02T09:30:00Z,26.2168,-96.4998,1012.24,11111222 
TABS,ioos:station:wmo:42045:1,2013-05-02T10:00:00Z,26.2168,-96.4998,1012.42,11111222 
TABS,ioos:station:wmo:42045:1,2013-05-02T10:30:00Z,26.2168,-96.4998,1013.13,11111222 
TABS,ioos:station:wmo:42045:1,2013-05-02T11:00:00Z,26.2168,-96.4998,1013.45,11111222 
TABS,ioos:station:wmo:42045:1,2013-05-02T11:30:00Z,26.2168,-96.4998,1013.77,11111222 
TABS,ioos:station:wmo:42045:1,2013-05-02T12:00:00Z,26.2168,-96.4998,1013.34,11111222 
TABS,ioos:station:wmo:42045:1,2013-05-02T12:30:00Z,26.2168,-96.4998,1013.53,11111222 
TABS,ioos:station:wmo:42045:1,2013-05-02T13:00:00Z,26.2168,-96.4998,1013.64,11111222 
TABS,ioos:station:wmo:42045:1,2013-05-02T13:30:00Z,26.2168,-96.4998,1013.65,11111222 
TABS,ioos:station:wmo:42045:1,2013-05-02T14:00:00Z,26.2168,-96.4998,1013.88,11111222 
TABS,ioos:station:wmo:42045:1,2013-05-02T14:30:00Z,26.2168,-96.4998,1015.18,11111222 
TABS,ioos:station:wmo:42045:1,2013-05-02T15:00:00Z,26.2168,-96.4998,1015.32,11111222 
TABS,ioos:station:wmo:42045:1,2013-05-02T15:30:00Z,26.2168,-96.4998,1015.56,11111222 
TABS,ioos:station:wmo:42045:1,2013-05-02T16:00:00Z,26.2168,-96.4998,1015.04,11111222 
TABS,ioos:station:wmo:42045:1,2013-05-02T16:30:00Z,26.2168,-96.4998,1015.93,11111222 
TABS,ioos:station:wmo:42045:1,2013-05-02T17:00:00Z,26.2168,-96.4998,1016.12,11111222 
TABS,ioos:station:wmo:42045:1,2013-05-02T17:30:00Z,26.2168,-96.4998,1016.6,11111222 
TABS,ioos:station:wmo:42045:1,2013-05-02T18:00:00Z,26.2168,-96.4998,1016.55,11111222 
TABS,ioos:station:wmo:42045:1,2013-05-02T18:30:00Z,26.2168,-96.4998,1016.52,11111222 
TABS,ioos:station:wmo:42045:1,2013-05-02T19:00:00Z,26.2168,-96.4998,1016.43,11111222 
TABS,ioos:station:wmo:42045:1,2013-05-02T19:30:00Z,26.2168,-96.4998,1016.06,11111222 
TABS,ioos:station:wmo:42045:1,2013-05-02T20:00:00Z,26.2168,-96.4998,1015.8,11111222 
TABS,ioos:station:wmo:42045:1,2013-05-02T20:30:00Z,26.2168,-96.4998,1015.65,11111222 
TABS,ioos:station:wmo:42045:1,2013-05-02T21:00:00Z,26.2168,-96.4998,1015.77,11111222 
TABS,ioos:station:wmo:42045:1,2013-05-02T21:30:00Z,26.2168,-96.4998,1015.96,11111222 
TABS,ioos:station:wmo:42045:1,2013-05-02T22:00:00Z,26.2168,-96.4998,1016.69,11111222 
TABS,ioos:station:wmo:42045:1,2013-05-02T22:30:00Z,26.2168,-96.4998,1016.11,11111222 
TABS,ioos:station:wmo:42045:1,2013-05-02T23:00:00Z,26.2168,-96.4998,1016.96,11111222 
TABS,ioos:station:wmo:42045:1,2013-05-02T23:30:00Z,26.2168,-96.4998,1017.31,11111222 
TABS,ioos:station:wmo:42045:1,2013-05-03T00:00:00Z,26.2168,-96.4998,1017.45,11111222 
TABS,ioos:station:wmo:42045:1,2013-05-03T00:30:00Z,26.2168,-96.4998,1017.83,11111222 
TABS,ioos:station:wmo:42045:1,2013-05-03T01:00:00Z,26.2168,-96.4998,1017.87,11111222 
TABS,ioos:station:wmo:42045:1,2013-05-03T01:30:00Z,26.2168,-96.4998,1019.02,11111222 
TABS,ioos:station:wmo:42045:1,2013-05-03T02:00:00Z,26.2168,-96.4998,1019.2,11111222 
TABS,ioos:station:wmo:42045:1,2013-05-03T02:30:00Z,26.2168,-96.4998,1019.75,11111222 
TABS,ioos:station:wmo:42045:1,2013-05-03T03:00:00Z,26.2168,-96.4998,1020.44,11111222 
TABS,ioos:station:wmo:42045:1,2013-05-03T03:30:00Z,26.2168,-96.4998,1021.09,11111222 
TABS,ioos:station:wmo:42045:1,2013-05-03T04:00:00Z,26.2168,-96.4998,1021.48,11111222 
TABS,ioos:station:wmo:42045:1,2013-05-03T04:30:00Z,26.2168,-96.4998,1021.62,11111222 
TABS,ioos:station:wmo:42045:1,2013-05-03T05:00:00Z,26.2168,-96.4998,1021.72,11111222 
TABS,ioos:station:wmo:42045:1,2013-05-03T05:30:00Z,26.2168,-96.4998,1022.06,11111222 
TABS,ioos:station:wmo:42045:1,2013-05-03T06:00:00Z,26.2168,-96.4998,1022.06,11111222 
TABS,ioos:station:wmo:42045:1,2013-05-03T06:30:00Z,26.2168,-96.4998,1021.46,11111222 
TABS,ioos:station:wmo:42045:1,2013-05-03T07:00:00Z,26.2168,-96.4998,1021.02,11111222 
TABS,ioos:station:wmo:42045:1,2013-05-03T07:30:00Z,26.2168,-96.4998,1020.87,11111222 
TABS,ioos:station:wmo:42045:1,2013-05-03T08:00:00Z,26.2168,-96.4998,1021.02,11111222 
TABS,ioos:station:wmo:42045:1,2013-05-03T08:30:00Z,26.2168,-96.4998,1021.56,11111222 
TABS,ioos:station:wmo:42045:1,2013-05-03T09:00:00Z,26.2168,-96.4998,1020.99,11111222 
TABS,ioos:station:wmo:42045:1,2013-05-03T09:30:00Z,26.2168,-96.4998,1020.93,11111222 
TABS,ioos:station:wmo:42045:1,2013-05-03T10:00:00Z,26.2168,-96.4998,1020.94,11111222 
TABS,ioos:station:wmo:42045:1,2013-05-03T10:30:00Z,26.2168,-96.4998,1021.44,11111222 
TABS,ioos:station:wmo:42045:1,2013-05-03T11:00:00Z,26.2168,-96.4998,1021.78,11111222 
TABS,ioos:station:wmo:42045:1,2013-05-03T11:30:00Z,26.2168,-96.4998,1022.27,11111222 
TABS,ioos:station:wmo:42045:1,2013-05-03T12:00:00Z,26.2168,-96.4998,1023.18,11111222 
TABS,ioos:station:wmo:42045:1,2013-05-03T12:30:00Z,26.2168,-96.4998,1023.57,11111222 
TABS,ioos:station:wmo:42045:1,2013-05-03T13:00:00Z,26.2168,-96.4998,1023.58,11111222 
TABS,ioos:station:wmo:42045:1,2013-05-03T13:30:00Z,26.2168,-96.4998,1023.61,11111222 
TABS,ioos:station:wmo:42045:1,2013-05-03T14:00:00Z,26.2168,-96.4998,1024.37,11111222 
TABS,ioos:station:wmo:42045:1,2013-05-03T14:30:00Z,26.2168,-96.4998,1024.46,11111222 
TABS,ioos:station:wmo:42045:1,2013-05-03T15:00:00Z,26.2168,-96.4998,1024.9,11111222 
TABS,ioos:station:wmo:42045:1,2013-05-03T15:30:00Z,26.2168,-96.4998,1025.38,11111222 
TABS,ioos:station:wmo:42045:1,2013-05-03T16:00:00Z,26.2168,-96.4998,1024.88,11111222 
TABS,ioos:station:wmo:42045:1,2013-05-03T16:30:00Z,26.2168,-96.4998,1025.12,11111222 
TABS,ioos:station:wmo:42045:1,2013-05-03T17:00:00Z,26.2168,-96.4998,1025.01,11111222 
TABS,ioos:station:wmo:42045:1,2013-05-03T17:30:00Z,26.2168,-96.4998,1024.49,11111222 
TABS,ioos:station:wmo:42045:1,2013-05-03T18:00:00Z,26.2168,-96.4998,1024.09,11111222 
TABS,ioos:station:wmo:42045:1,2013-05-03T18:30:00Z,26.2168,-96.4998,1023.45,11111222 
TABS,ioos:station:wmo:42045:1,2013-05-03T19:00:00Z,26.2168,-96.4998,1022.95,11111222 
TABS,ioos:station:wmo:42045:1,2013-05-03T19:30:00Z,26.2168,-96.4998,1022.52,11111222 
TABS,ioos:station:wmo:42045:1,2013-05-03T20:00:00Z,26.2168,-96.4998,1022.02,11111222 
TABS,ioos:station:wmo:42045:1,2013-05-03T20:30:00Z,26.2168,-96.4998,1021.44,11111222 
TABS,ioos:station:wmo:42045:1,2013-05-03T21:00:00Z,26.2168,-96.4998,1021.09,11111222 
TABS,ioos:station:wmo:42045:1,2013-05-03T21:30:00Z,26.2168,-96.4998,1020.82,11111222 
TABS,ioos:station:wmo:42045:1,2013-05-03T22:00:00Z,26.2168,-96.4998,1020.43,11111222 
TABS,ioos:station:wmo:42045:1,2013-05-03T22:30:00Z,26.2168,-96.4998,1020.14,11111222 
TABS,ioos:station:wmo:42045:1,2013-05-03T23:00:00Z,26.2168,-96.4998,1020.0,11111222 
TABS,ioos:station:wmo:42045:1,2013-05-03T23:30:00Z,26.2168,-96.4998,1019.73,11111222 
TABS,ioos:station:wmo:42045:1,2013-05-04T00:00:00Z,26.2168,-96.4998,1019.68,11111222 
TABS,ioos:station:wmo:42045:1,2013-05-04T00:30:00Z,26.2168,-96.4998,1019.77,11111222 
TABS,ioos:station:wmo:42045:1,2013-05-04T01:00:00Z,26.2168,-96.4998,1019.87,11111222 
TABS,ioos:station:wmo:42045:1,2013-05-04T01:30:00Z,26.2168,-96.4998,1020.05,11111222 
TABS,ioos:station:wmo:42045:1,2013-05-04T02:00:00Z,26.2168,-96.4998,1019.99,11111222 
TABS,ioos:station:wmo:42045:1,2013-05-04T02:30:00Z,26.2168,-96.4998,1020.13,11111222 
TABS,ioos:station:wmo:42045:1,2013-05-04T03:00:00Z,26.2168,-96.4998,1020.33,11111222 
TABS,ioos:station:wmo:42045:1,2013-05-04T03:30:00Z,26.2168,-96.4998,1020.25,11111222 
TABS,ioos:station:wmo:42045:1,2013-05-04T04:00:00Z,26.2168,-96.4998,1020.3,11111222 
TABS,ioos:station:wmo:42045:1,2013-05-04T04:30:00Z,26.2168,-96.4998,1020.23,11111222 
TABS,ioos:station:wmo:42045:1,2013-05-04T05:00:00Z,26.2168,-96.4998,1020.07,11111222 
TABS,ioos:station:wmo:42045:1,2013-05-04T05:30:00Z,26.2168,-96.4998,1019.77,11111222 
TABS,ioos:station:wmo:42045:1,2013-05-04T06:00:00Z,26.2168,-96.4998,1019.64,11111222 
TABS,ioos:station:wmo:42045:1,2013-05-04T06:30:00Z,26.2168,-96.4998,1019.48,11111222 
TABS,ioos:station:wmo:42045:1,2013-05-04T07:00:00Z,26.2168,-96.4998,1019.34,11111222 
TABS,ioos:station:wmo:42045:1,2013-05-04T07:30:00Z,26.2168,-96.4998,1019.02,11111222 
TABS,ioos:station:wmo:42045:1,2013-05-04T08:00:00Z,26.2168,-96.4998,1018.67,11111222 
TABS,ioos:station:wmo:42045:1,2013-05-04T08:30:00Z,26.2168,-96.4998,1018.67,11111222 
TABS,ioos:station:wmo:42045:1,2013-05-04T09:00:00Z,26.2168,-96.4998,1018.67,11111222 
TABS,ioos:station:wmo:42045:1,2013-05-04T09:30:00Z,26.2168,-96.4998,1018.23,11111222 
TABS,ioos:station:wmo:42045:1,2013-05-04T10:00:00Z,26.2168,-96.4998,1018.12,11111222 
TABS,ioos:station:wmo:42045:1,2013-05-04T10:30:00Z,26.2168,-96.4998,1018.07,11111222 
TABS,ioos:station:wmo:42045:1,2013-05-04T11:00:00Z,26.2168,-96.4998,1018.03,11111222 
TABS,ioos:station:wmo:42045:1,2013-05-04T11:30:00Z,26.2168,-96.4998,1018.08,11111222 
TABS,ioos:station:wmo:42045:1,2013-05-04T12:00:00Z,26.2168,-96.4998,1018.31,11111222 
TABS,ioos:station:wmo:42045:1,2013-05-04T12:30:00Z,26.2168,-96.4998,1018.75,11111222 
TABS,ioos:station:wmo:42045:1,2013-05-04T13:00:00Z,26.2168,-96.4998,1018.78,11111222 
TABS,ioos:station:wmo:42045:1,2013-05-04T13:30:00Z,26.2168,-96.4998,1018.73,11111222 
TABS,ioos:station:wmo:42045:1,2013-05-04T14:00:00Z,26.2168,-96.4998,1018.83,11111222 
TABS,ioos:station:wmo:42045:1,2013-05-04T14:30:00Z,26.2168,-96.4998,1019.0,11111222 
TABS,ioos:station:wmo:42045:1,2013-05-04T15:00:00Z,26.2168,-96.4998,1018.98,11111222 
TABS,ioos:station:wmo:42045:1,2013-05-04T15:30:00Z,26.2168,-96.4998,1019.13,11111222 
TABS,ioos:station:wmo:42045:1,2013-05-04T16:00:00Z,26.2168,-96.4998,1018.77,11111222 
TABS,ioos:station:wmo:42045:1,2013-05-04T16:30:00Z,26.2168,-96.4998,1018.63,11111222 
TABS,ioos:station:wmo:42045:1,2013-05-04T17:00:00Z,26.2168,-96.4998,1018.43,11111222 
TABS,ioos:station:wmo:42045:1,2013-05-04T17:30:00Z,26.2168,-96.4998,1017.98,11111222 
TABS,ioos:station:wmo:42045:1,2013-05-04T18:00:00Z,26.2168,-96.4998,1017.39,11111222 
TABS,ioos:station:wmo:42045:1,2013-05-04T18:30:00Z,26.2168,-96.4998,1016.81,11111222 
TABS,ioos:station:wmo:42045:1,2013-05-04T19:00:00Z,26.2168,-96.4998,1016.48,11111222 
TABS,ioos:station:wmo:42045:1,2013-05-04T19:30:00Z,26.2168,-96.4998,1016.29,11111222 
TABS,ioos:station:wmo:42045:1,2013-05-04T20:00:00Z,26.2168,-96.4998,1015.96,11111222 
TABS,ioos:station:wmo:42045:1,2013-05-04T20:30:00Z,26.2168,-96.4998,1015.6,11111222 
TABS,ioos:station:wmo:42045:1,2013-05-04T21:00:00Z,26.2168,-96.4998,1015.49,11111222 
TABS,ioos:station:wmo:42045:1,2013-05-04T21:30:00Z,26.2168,-96.4998,1015.05,11111222 
TABS,ioos:station:wmo:42045:1,2013-05-04T22:00:00Z,26.2168,-96.4998,1014.74,11111222 
TABS,ioos:station:wmo:42045:1,2013-05-04T22:30:00Z,26.2168,-96.4998,1014.62,11111222 
TABS,ioos:station:wmo:42045:1,2013-05-04T23:00:00Z,26.2168,-96.4998,1014.35,11111222 
TABS,ioos:station:wmo:42045:1,2013-05-04T23:30:00Z,26.2168,-96.4998,1014.21,11111222 
TABS,ioos:station:wmo:42045:1,2013-05-05T00:00:00Z,26.2168,-96.4998,1013.89,11111222 
TABS,ioos:station:wmo:42045:1,2013-05-05T00:30:00Z,26.2168,-96.4998,1014.28,11111222 
TABS,ioos:station:wmo:42045:1,2013-05-05T01:00:00Z,26.2168,-96.4998,1014.46,11111222 
TABS,ioos:station:wmo:42045:1,2013-05-05T01:30:00Z,26.2168,-96.4998,1014.89,11111222 
TABS,ioos:station:wmo:42045:1,2013-05-05T02:00:00Z,26.2168,-96.4998,1014.76,11111222 
TABS,ioos:station:wmo:42045:1,2013-05-05T02:30:00Z,26.2168,-96.4998,1015.29,11111222 
TABS,ioos:station:wmo:42045:1,2013-05-05T03:00:00Z,26.2168,-96.4998,1014.81,11111222 
TABS,ioos:station:wmo:42045:1,2013-05-05T03:30:00Z,26.2168,-96.4998,1015.66,11111222 
TABS,ioos:station:wmo:42045:1,2013-05-05T04:00:00Z,26.2168,-96.4998,1015.73,11111222 
TABS,ioos:station:wmo:42045:1,2013-05-05T04:30:00Z,26.2168,-96.4998,1015.55,11111222 
TABS,ioos:station:wmo:42045:1,2013-05-05T05:00:00Z,26.2168,-96.4998,1015.62,11111222 
TABS,ioos:station:wmo:42045:1,2013-05-05T05:30:00Z,26.2168,-96.4998,1015.75,11111222 
TABS,ioos:station:wmo:42045:1,2013-05-05T06:00:00Z,26.2168,-96.4998,1015.7,11111222 
TABS,ioos:station:wmo:42045:1,2013-05-05T06:30:00Z,26.2168,-96.4998,1015.69,11111222 
TABS,ioos:station:wmo:42045:1,2013-05-05T07:00:00Z,26.2168,-96.4998,1015.32,11111222 
TABS,ioos:station:wmo:42045:1,2013-05-05T07:30:00Z,26.2168,-96.4998,1014.94,11111222 
TABS,ioos:station:wmo:42045:1,2013-05-05T08:00:00Z,26.2168,-96.4998,1014.71,11111222 
TABS,ioos:station:wmo:42045:1,2013-05-05T08:30:00Z,26.2168,-96.4998,1014.59,11111222 
TABS,ioos:station:wmo:42045:1,2013-05-05T09:00:00Z,26.2168,-96.4998,1014.54,11111222 
TABS,ioos:station:wmo:42045:1,2013-05-05T09:30:00Z,26.2168,-96.4998,1014.66,11111222 
TABS,ioos:station:wmo:42045:1,2013-05-05T10:00:00Z,26.2168,-96.4998,1014.93,11111222 
TABS,ioos:station:wmo:42045:1,2013-05-05T10:30:00Z,26.2168,-96.4998,1015.08,11111222 
TABS,ioos:station:wmo:42045:1,2013-05-05T11:00:00Z,26.2168,-96.4998,1015.04,11111222 
TABS,ioos:station:wmo:42045:1,2013-05-05T11:30:00Z,26.2168,-96.4998,1015.2,11111222 
TABS,ioos:station:wmo:42045:1,2013-05-05T12:00:00Z,26.2168,-96.4998,1015.53,11111222 
TABS,ioos:station:wmo:42045:1,2013-05-05T12:30:00Z,26.2168,-96.4998,1015.93,11111222 
TABS,ioos:station:wmo:42045:1,2013-05-05T13:00:00Z,26.2168,-96.4998,1016.27,11111222 
TABS,ioos:station:wmo:42045:1,2013-05-05T13:30:00Z,26.2168,-96.4998,1016.56,11111222 
TABS,ioos:station:wmo:42045:1,2013-05-05T14:00:00Z,26.2168,-96.4998,1016.8,11111222 
TABS,ioos:station:wmo:42045:1,2013-05-05T14:30:00Z,26.2168,-96.4998,1017.1,11111222 
TABS,ioos:station:wmo:42045:1,2013-05-05T15:00:00Z,26.2168,-96.4998,1017.52,11111222 
TABS,ioos:station:wmo:42045:1,2013-05-05T15:30:00Z,26.2168,-96.4998,1017.87,11111222 
TABS,ioos:station:wmo:42045:1,2013-05-05T16:00:00Z,26.2168,-96.4998,1018.11,11111222 
TABS,ioos:station:wmo:42045:1,2013-05-05T16:30:00Z,26.2168,-96.4998,1018.25,11111222 
TABS,ioos:station:wmo:42045:1,2013-05-05T17:00:00Z,26.2168,-96.4998,1018.19,11111222 
TABS,ioos:station:wmo:42045:1,2013-05-05T17:30:00Z,26.2168,-96.4998,1017.98,11111222 
TABS,ioos:station:wmo:42045:1,2013-05-05T18:00:00Z,26.2168,-96.4998,1017.82,11111222 
TABS,ioos:station:wmo:42045:1,2013-05-05T18:30:00Z,26.2168,-96.4998,1017.7,11111222 
TABS,ioos:station:wmo:42045:1,2013-05-05T19:00:00Z,26.2168,-96.4998,1017.55,11111222 
TABS,ioos:station:wmo:42045:1,2013-05-05T19:30:00Z,26.2168,-96.4998,1017.55,11111222 
TABS,ioos:station:wmo:42045:1,2013-05-05T20:00:00Z,26.2168,-96.4998,1017.27,11111222 
TABS,ioos:station:wmo:42045:1,2013-05-05T20:30:00Z,26.2168,-96.4998,1017.11,11111222 
TABS,ioos:station:wmo:42045:1,2013-05-05T21:00:00Z,26.2168,-96.4998,1016.71,11111222 
TABS,ioos:station:wmo:42045:1,2013-05-05T21:30:00Z,26.2168,-96.4998,1016.7,11111222 
TABS,ioos:station:wmo:42045:1,2013-05-05T22:00:00Z,26.2168,-96.4998,1016.47,11111222 
TABS,ioos:station:wmo:42045:1,2013-05-05T22:30:00Z,26.2168,-96.4998,1016.54,11111222 
TABS,ioos:station:wmo:42045:1,2013-05-05T23:00:00Z,26.2168,-96.4998,1016.41,11111222 
TABS,ioos:station:wmo:42045:1,2013-05-05T23:30:00Z,26.2168,-96.4998,1016.51,11111222 
TABS,ioos:station:wmo:42045:1,2013-05-06T00:00:00Z,26.2168,-96.4998,1016.75,11111222 
TABS,ioos:station:wmo:42045:1,2013-05-06T00:30:00Z,26.2168,-96.4998,1017.04,11111222 
TABS,ioos:station:wmo:42045:1,2013-05-06T01:00:00Z,26.2168,-96.4998,1017.26,11111222 
TABS,ioos:station:wmo:42045:1,2013-05-06T01:30:00Z,26.2168,-96.4998,1017.5,11111222 
TABS,ioos:station:wmo:42045:1,2013-05-06T02:00:00Z,26.2168,-96.4998,1017.65,11111222 
TABS,ioos:station:wmo:42045:1,2013-05-06T02:30:00Z,26.2168,-96.4998,1018.01,11111222 
TABS,ioos:station:wmo:42045:1,2013-05-06T03:00:00Z,26.2168,-96.4998,1018.09,11111222 
TABS,ioos:station:wmo:42045:1,2013-05-06T03:30:00Z,26.2168,-96.4998,1018.14,11111222 
TABS,ioos:station:wmo:42045:1,2013-05-06T04:00:00Z,26.2168,-96.4998,1018.27,11111222 
TABS,ioos:station:wmo:42045:1,2013-05-06T04:30:00Z,26.2168,-96.4998,1018.47,11111222 
TABS,ioos:station:wmo:42045:1,2013-05-06T05:00:00Z,26.2168,-96.4998,1018.57,11111222 
TABS,ioos:station:wmo:42045:1,2013-05-06T05:30:00Z,26.2168,-96.4998,1018.43,11111222 
TABS,ioos:station:wmo:42045:1,2013-05-06T06:00:00Z,26.2168,-96.4998,1018.34,11111222 
TABS,ioos:station:wmo:42045:1,2013-05-06T06:30:00Z,26.2168,-96.4998,1018.18,11111222 
TABS,ioos:station:wmo:42045:1,2013-05-06T07:00:00Z,26.2168,-96.4998,1017.91,11111222 
TABS,ioos:station:wmo:42045:1,2013-05-06T07:30:00Z,26.2168,-96.4998,1017.63,11111222 
TABS,ioos:station:wmo:42045:1,2013-05-06T08:00:00Z,26.2168,-96.4998,1017.3,11111222 
TABS,ioos:station:wmo:42045:1,2013-05-06T08:30:00Z,26.2168,-96.4998,1017.03,11111222 
TABS,ioos:station:wmo:42045:1,2013-05-06T09:00:00Z,26.2168,-96.4998,1017.06,11111222 
TABS,ioos:station:wmo:42045:1,2013-05-06T09:30:00Z,26.2168,-96.4998,1017.07,11111222 
TABS,ioos:station:wmo:42045:1,2013-05-06T10:00:00Z,26.2168,-96.4998,1017.2,11111222 
TABS,ioos:station:wmo:42045:1,2013-05-06T10:30:00Z,26.2168,-96.4998,1017.24,11111222 
TABS,ioos:station:wmo:42045:1,2013-05-06T11:00:00Z,26.2168,-96.4998,1017.23,11111222 
TABS,ioos:station:wmo:42045:1,2013-05-06T11:30:00Z,26.2168,-96.4998,1017.38,11111222 
TABS,ioos:station:wmo:42045:1,2013-05-06T12:00:00Z,26.2168,-96.4998,1017.65,11111222 
TABS,ioos:station:wmo:42045:1,2013-05-06T12:30:00Z,26.2168,-96.4998,1017.84,11111222 
TABS,ioos:station:wmo:42045:1,2013-05-06T13:00:00Z,26.2168,-96.4998,1017.93,11111222 
TABS,ioos:station:wmo:42045:1,2013-05-06T13:30:00Z,26.2168,-96.4998,1018.32,11111222 
TABS,ioos:station:wmo:42045:1,2013-05-06T14:00:00Z,26.2168,-96.4998,1018.65,11111222 
TABS,ioos:station:wmo:42045:1,2013-05-06T14:30:00Z,26.2168,-96.4998,1019.02,11111222 
TABS,ioos:station:wmo:42045:1,2013-05-06T15:00:00Z,26.2168,-96.4998,1019.47,11111222 
TABS,ioos:station:wmo:42045:1,2013-05-06T15:30:00Z,26.2168,-96.4998,1019.41,11111222 
TABS,ioos:station:wmo:42045:1,2013-05-06T16:00:00Z,26.2168,-96.4998,1019.48,11111222 
TABS,ioos:station:wmo:42045:1,2013-05-06T16:30:00Z,26.2168,-96.4998,1019.46,11111222 
TABS,ioos:station:wmo:42045:1,2013-05-06T17:00:00Z,26.2168,-96.4998,1019.36,11111222 
TABS,ioos:station:wmo:42045:1,2013-05-06T17:30:00Z,26.2168,-96.4998,1019.01,11111222 
TABS,ioos:station:wmo:42045:1,2013-05-06T18:00:00Z,26.2168,-96.4998,1018.74,11111222 
TABS,ioos:station:wmo:42045:1,2013-05-06T18:30:00Z,26.2168,-96.4998,1018.37,11111222 